[[{"header":{"parameterUnit":"m.s-1","parameterCategory":1,"la1":30.2991,"la2":30.254,"lo1":-89.0895,"lo2":-89.0444,"dy":0.0017,"dx":0.0017,"nx":28,"ny":28,"refTime":"2023-10-28T03:00:00:Z","depth":0,"parameterNumber":2,"parameterNumberName":"U-component_of_WINDS"},"data":[0,0,0,0,0,0,0,0,0,0,0,0,0,0,0,0,0,0,0,0,0,0,0,0,0,0,0,0,0,0,0,0,0,0,0,0,0,0,0,0,0,0,0,0,0,0,0,0,0,0,0,0,0,0,0,0,0,0,-3.5202,-3.5202,0,-3.514,-3.514,-3.5139,-3.5005,-3.5002,-3.4999,-3.4997,-3.4937,-3.4937,-3.4938,0,0,0,0,0,0,0,0,0,0,0,0,0,-3.5209,-3.521,-3.5202,-3.5202,-3.5201,-3.5141,-3.514,-3.5139,-3.5005,-3.5002,-3.4999,-3.4995,-3.4936,-3.4937,-3.4939,0,0,0,0,0,0,0,0,0,0,0,0,0,-3.5183,-3.521,-3.5203,-3.5127,-3.5119,-3.5141,-3.514,-3.5139,-3.5006,-3.5002,-3.4998,-3.4994,-3.4936,-3.4937,-3.4939,-3.503,0,0,-3.4943,-3.4944,0,0,0,0,0,0,0,0,-3.5185,-3.5183,-3.5139,-3.5132,-3.5124,-3.5076,-3.512,-3.5102,-3.5007,-3.5049,-3.4997,-3.4992,-3.4987,-3.4984,-3.4981,-3.5027,-3.5024,-3.4943,-3.4944,-3.4945,-3.4945,0,0,0,0,0,0,0,-3.5187,-3.5185,-3.5178,-3.5138,-3.5129,-3.5097,-3.5089,-3.5116,-3.5042,-3.5045,-3.5035,-3.503,-3.4982,-3.498,-3.4979,-3.5023,-3.4943,-3.4944,-3.4945,-3.4946,-3.5143,-3.5147,0,0,0,0,0,0,-3.5199,-3.5187,-3.518,-3.5176,-3.5145,-3.5101,-3.5091,-3.5096,-3.5041,-3.5029,-3.5033,-3.5024,-3.498,-3.4977,-3.4976,-3.508,-3.4945,-3.4946,-3.4947,-3.5139,-3.5144,-3.5149,0,0,0,0,0,0,-3.52,-3.5199,-3.5182,-3.5179,-3.5174,-3.5105,-3.5111,-3.5097,-3.5094,-3.5032,-3.5018,-3.5045,-3.4976,-3.4974,-3.5018,-3.5076,-3.4947,-3.4948,-3.5134,-3.514,-3.5147,-3.529,0,0,0,0,0,0,-3.52,-3.52,-3.5233,-3.5181,-3.5175,-3.5224,-3.5114,-3.5098,-3.5097,-3.5084,-3.5039,-3.5028,-3.4973,-3.5016,-3.5019,-3.5076,-3.4949,-3.5128,-3.5137,-3.5144,-3.5279,-3.53,-3.5318,0,0,0,0,0,-3.5201,-3.5276,-3.5236,-3.5235,-3.5214,-3.5228,-3.5225,-3.5159,-3.5102,-3.5135,-3.5096,-3.5029,-3.5069,-3.5022,-3.5024,-3.5082,-3.5124,-3.5134,-3.5144,-3.5271,-3.5296,-3.5318,0,0,0,0,0,0,-3.5338,-3.5268,-3.5222,-3.5282,-3.5262,-3.5205,-3.5245,-3.5188,-3.5184,-3.5172,-3.5091,-3.5082,-3.5138,-3.5114,-3.5062,-3.5169,-3.5086,-3.5097,-3.5182,-3.5206,-3.5225,-3.523,-3.495,0,0,0,0,0,-3.5375,-3.5391,-3.5329,-3.5388,-3.538,-3.5315,-3.5318,-3.5269,-3.5245,-3.5236,-3.5199,-3.518,-3.5188,-3.5195,-3.5199,-3.5275,-3.5265,-3.5316,-3.5336,-3.5352,-3.5363,-3.5404,-3.5426,-3.5181,-3.5181,-3.5181,0,0,-3.5452,-3.5416,-3.5431,-3.5415,-3.5393,-3.5413,-3.5308,-3.5333,-3.5347,-3.524,-3.5279,-3.5252,-3.5225,-3.5286,-3.5311,-3.5268,-3.5428,-3.5365,-3.5378,-3.538,-3.5416,-3.5439,-3.546,-3.5188,-3.5187,-3.5186,0,0,-3.5603,-3.5576,-3.5623,-3.5604,-3.5573,-3.5529,-3.5541,-3.5493,-3.5471,-3.5508,-3.5429,-3.5446,-3.5461,-3.5446,-3.544,-3.5588,-3.5528,-3.5591,-3.5693,-3.5734,-3.5753,-3.577,-3.5825,-3.5845,-3.5602,-3.5602,-3.5603,0,-3.5703,-3.5728,-3.5655,-3.5685,-3.5682,-3.5585,-3.5634,-3.5619,-3.5592,-3.5592,-3.5544,-3.5563,-3.5538,-3.5595,-3.5631,-3.5629,-3.5642,-3.5596,-3.5756,-3.5772,-3.5787,-3.5838,-3.5859,-3.561,-3.5609,-3.5609,-3.5608,0,-3.5854,-3.5873,-3.5915,-3.589,-3.5891,-3.5931,-3.5865,-3.5875,-3.5827,-3.5789,-3.5831,-3.5797,-3.5794,-3.5803,-3.5756,-3.5855,-3.583,-3.577,-3.5686,-3.582,-3.5867,-3.5885,-3.5622,-3.5619,-3.5617,-3.5615,0,0,-3.6088,-3.6024,-3.6041,-3.6029,-3.5989,-3.6003,-3.6039,-3.6035,-3.6046,-3.6031,-3.6061,-3.6077,-3.6022,-3.6016,-3.5967,-3.6002,-3.6124,-3.5939,-3.5937,-3.5976,-3.6233,-3.6279,-3.6303,-3.6084,-3.6087,-3.609,-3.6236,0,-3.6231,-3.6287,-3.6224,-3.6295,-3.6313,-3.6222,-3.6254,-3.6234,-3.62,-3.6212,-3.6174,-3.6188,-3.6113,-3.6109,-3.614,-3.6103,-3.6175,-3.6091,-3.6113,-3.6114,-3.6124,-3.6327,-3.6375,-3.6515,-3.6254,-3.6257,-3.6259,0,-3.6404,-3.6397,-3.647,-3.6427,-3.6432,-3.6461,-3.6454,-3.6465,-3.6441,-3.6414,-3.6409,-3.6349,-3.6384,-3.6301,-3.6349,-3.6294,-3.6299,-3.6282,-3.6286,-3.6286,-3.6196,-3.6335,-3.6558,-3.658,-3.6287,-3.6285,-3.6283,0,-3.6571,-3.6579,-3.6624,-3.6617,-3.6567,-3.6591,-3.6571,-3.6543,-3.6546,-3.654,-3.6541,-3.6539,-3.6539,-3.654,-3.6483,-3.6428,-3.6539,-3.6451,-3.6519,-3.6521,-3.6547,-3.6547,-3.6776,-3.6549,-3.6548,-3.6548,-3.6547,0,-3.6737,-3.6786,-3.6699,-3.6727,-3.678,-3.6707,-3.6761,-3.6733,-3.6709,-3.6731,-3.6653,-3.6676,-3.6598,-3.6614,-3.6569,-3.6617,-3.6617,-3.6597,-3.6585,-3.6605,-3.6608,-3.6608,-3.6598,-3.6553,-3.6552,-3.6551,-3.655,0,-3.6932,-3.6875,-3.6919,-3.6869,-3.6857,-3.6899,-3.6856,-3.6881,-3.6842,-3.6872,-3.6875,-3.6815,-3.6829,-3.6771,-3.6776,-3.6746,-3.6818,-3.6788,-3.6826,-3.6818,-3.689,-3.6885,-3.7128,-3.7158,-3.6911,-3.6913,-3.6915,0,-3.7043,-3.7078,-3.7032,-3.7041,-3.7025,-3.7041,-3.7043,-3.6974,-3.698,-3.6956,-3.6985,-3.6992,-3.6995,-3.7022,-3.698,-3.6984,-3.6955,-3.704,-3.6955,-3.6975,-3.6959,-3.6958,-3.6963,-3.7059,-3.7062,-3.7064,-3.7066,0,-3.7246,-3.7217,-3.7222,-3.7219,-3.7224,-3.7219,-3.7208,-3.722,-3.7145,-3.7156,-3.717,-3.7172,-3.7177,-3.7186,-3.7181,-3.7163,-3.7104,-3.7093,-3.711,-3.7131,-3.7152,-3.7144,-3.6876,-3.7088,-3.7086,-3.7084,-3.7083,-3.7082,-3.7403,-3.7431,-3.7404,-3.7413,-3.7398,-3.739,-3.7412,-3.7376,-3.7386,-3.7384,-3.7342,-3.7365,-3.7342,-3.7329,-3.7317,-3.7335,-3.7295,-3.7318,-3.7324,-3.7332,-3.7345,-3.7148,-3.7333,-3.7332,-3.7332,-3.7331,-3.7331,0,-3.7604,-3.7582,-3.7592,-3.7579,-3.7588,-3.753,-3.7515,-3.7527,-3.7547,-3.753,-3.7535,-3.7552,-3.7561,-3.752,-3.7524,-3.7546,-3.7519,-3.755,-3.7548,-3.7546,-3.7379,-3.7365,-3.7572,-3.7572,-3.7572,-3.7572,-3.7572,-3.7572,-3.771,-3.7755,-3.7723,-3.7761,-3.7738,-3.7759,-3.7756,-3.775,-3.7736,-3.7758,-3.7765,-3.7738,-3.7712,-3.7714,-3.7721,-3.7709,-3.7715,-3.7756,-3.7735,-3.758,-3.7557,-3.7535,-3.7522,-3.7757,-3.7757,-3.79,-3.7901,-3.7902]},{"header":{"parameterUnit":"m.s-1","parameterCategory":1,"la1":30.2991,"la2":30.254,"lo1":-89.0895,"lo2":-89.0444,"dy":0.0017,"dx":0.0017,"nx":28,"ny":28,"refTime":"2023-10-28T03:00:00:Z","depth":0,"parameterNumber":3,"parameterNumberName":"V-component_of_WINDS"},"data":[0,0,0,0,0,0,0,0,0,0,0,0,0,0,0,0,0,0,0,0,0,0,0,0,0,0,0,0,0,0,0,0,0,0,0,0,0,0,0,0,0,0,0,0,0,0,0,0,0,0,0,0,0,0,0,0,0,0,1.007,1.007,0,1.0078,1.0078,1.0079,1.0163,1.0165,1.0168,1.017,1.0175,1.0173,1.0171,0,0,0,0,0,0,0,0,0,0,0,0,0,1.0126,1.0124,1.007,1.007,1.007,1.0078,1.0078,1.0079,1.0163,1.0166,1.0168,1.0171,1.0175,1.0173,1.0171,0,0,0,0,0,0,0,0,0,0,0,0,0,1.0114,1.0124,1.007,1.0113,1.0117,1.0078,1.0078,1.0079,1.0162,1.0166,1.0169,1.0172,1.0176,1.0173,1.0171,1.0089,0,0,1.0162,1.0161,0,0,0,0,0,0,0,0,1.0115,1.0112,1.0107,1.011,1.0115,1.0123,1.01,1.0082,1.0162,1.0145,1.017,1.0173,1.0155,1.0154,1.0148,1.009,1.009,1.0162,1.016,1.0159,1.0158,0,0,0,0,0,0,0,1.0116,1.0112,1.0073,1.0107,1.0111,1.0132,1.0134,1.0097,1.0132,1.0147,1.0153,1.0153,1.0157,1.0151,1.0149,1.009,1.0162,1.0159,1.0158,1.0157,0.9966,0.9963,0,0,0,0,0,0,1.0111,1.0112,1.0073,1.0074,1.0123,1.0128,1.0131,1.0117,1.0132,1.0138,1.015,1.0157,1.0154,1.0152,1.015,1.0056,1.0159,1.0156,1.0155,0.997,0.9966,0.9962,0,0,0,0,0,0,1.0112,1.0106,1.0073,1.0095,1.0092,1.0124,1.0108,1.0116,1.0109,1.0135,1.0142,1.0137,1.0156,1.0153,1.0104,1.0057,1.0155,1.0153,0.9974,0.9969,0.9964,0.9867,0,0,0,0,0,0,1.0113,1.0106,1.0076,1.0093,1.0091,1.0027,1.0105,1.0113,1.0104,1.0113,1.0124,1.0129,1.0159,1.0108,1.0101,1.0055,1.015,0.9978,0.9972,0.9966,0.9875,0.9859,0.9846,0,0,0,0,0,1.0115,1.0047,1.0074,1.0068,1.0053,1.0024,1.0023,1.0059,1.01,1.007,1.0087,1.0129,1.0064,1.0102,1.0096,1.0048,0.9981,0.9973,0.9966,0.9881,0.9862,0.9847,0,0,0,0,0,0,1.0021,1.005,1.008,1.0016,1.0018,1.0039,1.0001,1.0038,1.0026,1.0034,1.0079,1.0081,1.0024,1.0032,1.0074,0.9971,1.003,1.0021,0.9968,0.995,0.9936,0.9935,1.0148,0,0,0,0,0,0.9994,0.9968,0.9995,0.9936,0.9936,0.9968,0.9957,0.9985,0.9987,0.9988,1.0001,1.0001,0.9981,0.9966,0.9949,0.9877,0.9881,0.9841,0.9827,0.9815,0.9806,0.9769,0.9751,0.9937,0.9937,0.9937,0,0,0.9935,0.9948,0.9929,0.9918,0.9922,0.9894,0.9968,0.9935,0.9915,0.9982,0.9937,0.9947,0.995,0.9889,0.9863,0.9893,0.9756,0.9805,0.9796,0.9793,0.9759,0.9741,0.9726,0.9932,0.9933,0.9934,0,0,0.9815,0.9822,0.9775,0.9778,0.9784,0.9807,0.9796,0.9812,0.9822,0.9777,0.9828,0.9804,0.9768,0.9769,0.9764,0.9647,0.9685,0.964,0.9565,0.9528,0.9514,0.9501,0.9458,0.9443,0.9631,0.9631,0.9631,0,0.9741,0.9703,0.9745,0.971,0.9704,0.9766,0.9718,0.9719,0.9718,0.9712,0.9747,0.9704,0.971,0.965,0.9622,0.9617,0.9604,0.9638,0.9513,0.95,0.9489,0.9449,0.9433,0.9625,0.9626,0.9627,0.9627,0,0.9612,0.9584,0.9545,0.9545,0.9534,0.9493,0.9529,0.9513,0.9543,0.9562,0.9516,0.9527,0.9513,0.9501,0.9529,0.9445,0.9464,0.9505,0.9565,0.9465,0.9428,0.9413,0.9617,0.9619,0.9621,0.9622,0,0,0.9429,0.9456,0.9441,0.9442,0.9455,0.9434,0.9396,0.9384,0.9369,0.9367,0.9336,0.9305,0.9344,0.9339,0.9368,0.9335,0.9242,0.9381,0.9381,0.9353,0.915,0.9118,0.9099,0.9268,0.9266,0.9263,0.9149,0,0.9313,0.925,0.9288,0.9219,0.9194,0.9254,0.9221,0.9225,0.9242,0.9223,0.9243,0.922,0.9273,0.927,0.9241,0.9259,0.9201,0.9268,0.9238,0.9236,0.9233,0.908,0.9046,0.8937,0.9135,0.9133,0.9131,0,0.9168,0.9162,0.909,0.9109,0.91,0.907,0.9063,0.9045,0.905,0.9066,0.9061,0.9098,0.9062,0.9123,0.9073,0.9118,0.9108,0.9115,0.9112,0.9109,0.9176,0.9071,0.8904,0.8887,0.9109,0.9111,0.9112,0,0.9041,0.9015,0.8969,0.8969,0.899,0.8967,0.8975,0.8984,0.8975,0.8969,0.8964,0.8953,0.8946,0.8937,0.8971,0.9012,0.8916,0.898,0.8926,0.8925,0.8901,0.8902,0.8728,0.8897,0.8898,0.8898,0.8898,0,0.8906,0.8859,0.8913,0.8884,0.8834,0.888,0.8829,0.8843,0.8851,0.8826,0.8878,0.8853,0.89,0.888,0.8906,0.886,0.8857,0.8867,0.8875,0.8862,0.886,0.8855,0.8862,0.8894,0.8895,0.8895,0.8896,0,0.8754,0.8789,0.8743,0.8768,0.8773,0.8735,0.8756,0.8731,0.8753,0.8721,0.8716,0.875,0.8729,0.8762,0.8745,0.8763,0.8699,0.8718,0.8697,0.8702,0.8646,0.865,0.8461,0.8438,0.8623,0.8622,0.862,0,0.8665,0.8631,0.8654,0.8641,0.8647,0.8626,0.8618,0.8662,0.8651,0.8657,0.863,0.8614,0.8604,0.8567,0.859,0.8577,0.8596,0.853,0.8594,0.8582,0.8593,0.8594,0.8591,0.8516,0.8514,0.8512,0.8511,0,0.8502,0.8522,0.8509,0.8502,0.8491,0.8487,0.8487,0.8474,0.8521,0.8506,0.8486,0.8478,0.8462,0.8445,0.8438,0.8445,0.8485,0.8491,0.8478,0.8464,0.8452,0.8457,0.866,0.8495,0.8496,0.8498,0.8498,0.8499,0.8378,0.8352,0.8364,0.8348,0.8353,0.8352,0.833,0.8351,0.8335,0.8326,0.8354,0.8327,0.8336,0.8331,0.8334,0.8314,0.8343,0.8323,0.8318,0.8312,0.8303,0.8457,0.8313,0.8313,0.8314,0.8314,0.8315,0,0.8218,0.823,0.8215,0.8214,0.8202,0.8243,0.8246,0.8232,0.8209,0.8214,0.8204,0.8181,0.8166,0.8188,0.8176,0.8156,0.8174,0.8151,0.8152,0.8153,0.8279,0.8291,0.8137,0.8137,0.8137,0.8137,0.8137,0.8137,0.8132,0.8089,0.811,0.8071,0.8083,0.8059,0.8057,0.8056,0.8061,0.8034,0.8022,0.8038,0.805,0.804,0.8027,0.8034,0.8027,0.7997,0.801,0.8127,0.8144,0.8161,0.8172,0.7995,0.7995,0.7886,0.7885,0.7884]}]]